Location: Unspecified
(34.4950°S, 58.5160°W)
Time: 20:21:01
(UTC+00:00)

CSL-04 Rocket - Pass Details

Date: 04 December 2021
Orbit: 806 x 860 km, 98.9° (Epoch: 18 January)

Event Time Altitude Azimuth Distance (km) Brightness Sun altitude
Rises 23:38:45 0° 158° (SSE) 3,468 7.1 -8.6°
Reaches altitude 10° 23:41:19 10° 150° (SSE) 2,523 6.2 -9.0°
Maximum altitude 23:46:32 39° 82° (E) 1,280 4.2 -9.9°
Drops below altitude 10° 23:51:40 10° 13° (NNE) 2,481 5.7 -10.7°
Enters shadow 23:53:28 - 7° (N) 3,141 6.3 -11.0°
